Regional Weather Roundup
Issued by NWS Kansas City/Pleasant Hill, MO

Home | Current Version | Previous Version | Graphics & Text | Print | Product List | Glossary Off
Versions: 1 2 3 4 5 6 7 8 9 10 11 12 13 14 15 16 17 18 19 20 21 22 23 24 25 26 27

000
ASUS43 KEAX 270610
RWREAX

WEATHER ROUNDUP FOR EASTERN KANSAS AND NORTHWEST MISSOURI
NATIONAL WEATHER SERVICE KANSAS CITY/PLEASANT HILL MO
100 AM CDT THU JUL 27 2017

KSZ040-057-103>105-MOZ028-029-037-043-270700-
...KANSAS CITY METROPOLITAN AREA...

CITY           SKY/WX    TMP DP  RH WIND       PRES   REMARKS
K.C. INTL      TSTM      73  73 100 N9        29.98R VSB 1/2
6HR MIN TEMP:  73; 6HR MAX TEMP:  79; 6HR PCP:  2.60;

K.C. DOWNTOWN  RAIN      75  74  96 N3        29.95S
6HR MIN TEMP:  74; 6HR MAX TEMP:  81; 6HR PCP:  1.63;

LEES SUMMIT    LGT RAIN  73  73 100 S5        29.97F
6HR MIN TEMP:  73; 6HR MAX TEMP:  80; 6HR PCP:  1.54;

OLATHE - IXD   LGT RAIN  76  76 100 E5        29.95F FOG
6HR MIN TEMP:  76; 6HR MAX TEMP:  78; 6HR PCP:  0.52;

OLATHE - OJC   LGT RAIN  74  74 100 SE3       29.95F FOG
6HR MIN TEMP:  74; 6HR MAX TEMP:  77; 6HR PCP:  0.56;

LAWRENCE       RAIN      75  75 100 N7        29.94S FOG

$$

MOZ001>008-011>017-020>025-030>033-038>040-044>046-053-054-270700-
...NORTHERN AND CENTRAL MISSOURI...

CITY           SKY/WX    TMP DP  RH WIND       PRES   REMARKS
ST. JOSEPH     CLOUDY    76  76 100 W3        29.96S
6HR MIN TEMP:  76; 6HR MAX TEMP:  81;

MOSBY          TSTM      73  72  94 N3        29.95F
WARRENSBURG    TSTM      72  72 100 E6        29.95F
WHITEMAN AFB   TSTM      70  70 100 N7        29.99F FOG
6HR MIN TEMP:  70; 6HR MAX TEMP:  84; 6HR PCP:  1.44;

CLINTON        LGT RAIN  79  77  94 N21G29    29.99R
SEDALIA        TSTM      73  73 100 NW14G31   30.03R FOG
6HR MIN TEMP:  73; 6HR MAX TEMP:  86; 6HR PCP:  0.15;

WARSAW         NOT AVBL
CHILLICOTHE      N/A     76  76 100 S5        29.96F
6HR MIN TEMP:  76; 6HR MAX TEMP:  81; 6HR PCP:  0.01;

KIRKSVILLE     CLOUDY    76  74  93 CALM      29.97F
6HR MIN TEMP:  76; 6HR MAX TEMP:  80;


$$

MOZ041-047>049-056>058-063>065-088>090-097-270700-
...EASTERN AND SOUTHERN MISSOURI...

CITY           SKY/WX    TMP DP  RH WIND       PRES   REMARKS
ST. LOUIS INTL CLOUDY    82  75  79 SE3       29.93F
6HR MIN TEMP:  81; 6HR MAX TEMP:  93; 6HR PCP:  0.05;

SPIRIT OF STL  CLOUDY    81  75  82 CALM      29.90F
COLUMBIA       LGT RAIN  76  75  97 S3        29.94F
JEFFERSON CITY LGT RAIN  80  79  96 E9        29.93F
ROLLA          CLOUDY    80  73  79 SW7       29.98F
OSAGE BEACH    CLOUDY    84  72  67 SW5       29.97F
SPRINGFIELD    PTCLDY    80  73  79 S6        30.00S
BRANSON          N/A     79  72  78 S7        30.03F
JOPLIN         LGT RAIN  82  76  81 S8        29.99S
WEST PLAINS    CLEAR     79  71  76 SW3       30.03S

$$

IAZ060-094-KSZ022-034>040-054-083-096-NEZ052-066-093-270700-
...KANSAS...SOUTHEAST NEBRASKA AND IOWA...

CITY           SKY/WX    TMP DP  RH WIND       PRES   REMARKS
TOPEKA         TSTM      76  76 100 E6        29.95S
6HR MIN TEMP:  76; 6HR MAX TEMP:  78; 6HR PCP:  0.11;

MANHATTAN      CLOUDY    76  74  93 NE6       29.96S
EMPORIA        CLOUDY    76  76 100 E7        29.94F FOG
CHANUTE        LGT RAIN  81  75  82 S12       29.95S
WICHITA        MOCLDY    83  71  67 S10       29.93R
OMAHA          FOG       72  70  93 N5        30.02S VSB 1/4
LINCOLN        FOG       72  71  97 N5        30.03S VSB 1/4
FALLS CITY     CLOUDY    74  73  97 NW5       29.97S FOG
LAMONI         CLOUDY    75  75 100 N8        29.98S FOG
DES MOINES     MOCLDY    73  71  93 N5        29.98S

$$





USA.gov is the U.S. government's official web portal to all federal, state and local government web resources and services.